#timestamp,LO_Frequency,Hit,StdDev 
1509444015.9,286046997.9,N
1509444035.7,286046997.2,N
1509444055.6,286046997.3,N
1509444075.4,286046995.0,N
1509444095.2,286046995.9,N
1509444115.1,286046991.7,Y
1509444116.0,286046991.7,P
1509444135.8,286046991.9,N
1509444155.7,286046993.2,N
1509444175.5,286046993.1,N
1509444195.3,286046990.7,Y
1509444215.2,286046996.9,P
1509444235.9,286046996.6,N
1509444255.7,286046999.5,N
1509444275.6,286046999.0,N
1509444295.4,286046999.5,N
1509444315.2,286046996.9,N
1509444335.1,286046997.0,N
1509444336.0,286046997.0,N
1509444355.8,286046997.7,N
1509444375.7,286046994.9,Y
1509444395.5,286046999.0,P
1509444415.3,286046999.2,N
1509444435.2,286046997.8,N
1509444455.0,286046999.1,N
1509444455.9,286046999.1,N
1509444475.8,286046996.9,Y
1509444495.6,286046998.2,P
1509444515.4,286047000.9,P
1509444535.3,286047000.2,N
1509444555.1,286047000.3,N
1509444575.8,286047000.5,N
1509444595.7,286047000.9,N
1509444615.5,286046998.3,N
1509444635.4,286046999.5,N
1509444655.2,286046999.3,N
1509444675.0,286046997.4,N
1509444675.9,286046997.4,N
1509444695.8,286046997.7,N
1509444715.6,286046994.9,Y
1509444735.4,286046999.1,P
1509444755.3,286046999.0,P
1509444775.1,286046997.7,P
1509444795.9,286046997.4,Y
1509444815.7,286046997.0,P
1509444835.5,286046997.3,P
1509444855.4,286046998.0,N
1509444875.2,286046996.2,Y
1509444895.0,286046999.2,P
1509444895.9,286046999.2,N
1509444915.8,286046998.4,N
1509444935.6,286046999.6,N
1509444955.5,286046997.7,Y
1509444975.3,286046997.3,P
1509444995.1,286046997.5,P
1509445015.9,286046995.1,P
1509445035.7,286046993.4,Y
1509445055.5,286046997.6,P
1509445075.4,286046997.6,P
1509445095.2,286046997.5,P
1509445115.1,286046997.3,Y
1509445116.0,286046997.3,P
1509445135.8,286046999.7,P
1509445155.6,286047000.1,N
1509445175.5,286047000.8,N
1509445195.3,286047001.2,N
1509445215.1,286046998.7,N
1509445235.9,286046998.4,N
1509445255.7,286046998.5,N
1509445275.6,286046998.2,N
1509445295.4,286046998.9,N
1509445315.2,286046998.3,N
1509445335.1,286046999.0,N
1509445336.0,286046999.0,N
1509445355.8,286046998.1,N
1509445375.7,286047001.2,N
1509445395.5,286046999.2,N
1509445415.3,286046998.9,N
1509445435.2,286047000.1,N
1509445455.0,286047001.3,N
1509445455.9,286047001.3,N
1509445475.7,286047001.9,N
1509445495.6,286047002.4,N
1509445515.4,286047000.2,N
1509445535.3,286047002.3,N
1509445555.1,286047000.0,N
1509445556.0,286047000.0,N
1509445575.8,286047000.8,N
1509445595.7,286047001.2,N
1509445615.5,286046998.4,N
1509445635.3,286046999.3,N
1509445655.2,286047000.6,N
1509445675.0,286047001.0,N
1509445675.9,286047001.0,N
1509445695.8,286047001.0,N
1509445715.6,286046998.6,N
1509445735.4,286046999.0,N
1509445755.3,286046998.3,N
1509445775.1,286046998.9,N
1509445795.8,286046998.9,N
1509445815.7,286046997.1,N
1509445835.5,286046997.0,N
1509445855.4,286047001.0,N
1509445875.2,286047000.9,N
1509445895.0,286046999.0,N
1509445895.9,286046999.0,N
1509445915.8,286046998.1,N
1509445935.6,286046999.9,N
1509445955.4,286046999.9,N
1509445975.3,286047000.4,N
1509445995.1,286047000.1,N
1509446015.9,286046998.3,N
1509446035.7,286047000.6,N
1509446055.5,286047000.7,N
1509446075.4,286047001.1,N
1509446095.2,286046998.2,N
1509446115.1,286046998.2,N
1509446116.0,286046998.2,N
1509446135.8,286047000.8,N
1509446155.6,286046998.2,N
1509446175.5,286047000.7,N
1509446195.3,286046999.3,N
1509446215.1,286046998.6,N
1509446235.9,286047000.8,N
1509446255.7,286047001.0,N
1509446275.6,286046998.7,N
1509446295.4,286046997.9,N
1509446315.2,286046997.7,N
1509446335.1,286046996.6,N
1509446336.0,286046996.6,N
1509446355.8,286046999.0,N
1509446375.6,286046998.9,N
1509446395.5,286046996.7,N
1509446415.3,286046995.1,Y
1509446435.2,286046997.7,P
1509446455.9,286046996.7,P
1509446475.7,286046997.5,N
1509446495.6,286046996.7,Y
1509446515.4,286046999.7,P
1509446535.3,286047002.2,N
1509446555.1,286047000.0,N
1509446556.0,286047000.0,N
1509446575.8,286047002.0,N
1509446595.7,286047002.4,N
1509446615.5,286047002.0,N
1509446635.3,286047002.6,N
1509446655.2,286047000.4,N
1509446675.0,286046998.6,N
1509446675.9,286046998.6,N
1509446695.8,286047002.6,N
1509446715.6,286047002.3,N
1509446735.4,286047001.6,N
1509446755.3,286047001.5,N
1509446775.1,286047001.9,N
1509446776.0,286047001.9,N
1509446795.8,286047001.7,N
1509446815.7,286047003.9,N
1509446835.5,286047004.0,N
1509446855.3,286047001.4,N
1509446875.2,286047001.8,N
1509446895.0,286047001.6,N
1509446895.9,286047001.6,N
1509446915.8,286047002.1,N
1509446935.6,286047002.2,N
1509446955.4,286047000.5,N
1509446975.3,286046998.2,N
1509446995.1,286047000.8,N
1509447015.9,286047001.2,N
1509447035.7,286047000.0,N
1509447055.5,286046998.3,N
1509447075.4,286047001.2,N
1509447095.2,286046999.0,N
1509447115.0,286046997.2,N
1509447115.9,286046997.2,N
1509447135.8,286046997.9,N
1509447155.6,286046997.2,N
1509447175.5,286046997.1,N
1509447195.3,286046998.8,N
1509447215.1,286047000.3,N
1509447235.9,286046999.9,N
1509447255.7,286047001.2,N
1509447275.5,286047000.1,N
1509447295.4,286046998.8,N
1509447315.2,286046998.3,N
1509447335.0,286047001.0,N
1509447336.0,286047001.0,N
1509447355.8,286047000.8,N
1509447375.6,286047000.2,N
1509447395.5,286047001.0,N
1509447415.3,286047000.5,N
1509447435.1,286047000.9,N
1509447455.9,286047002.4,N
1509447475.7,286047002.4,N
1509447495.6,286047002.8,N
1509447515.4,286047000.1,N
1509447535.2,286046998.2,N
1509447555.1,286046999.4,N
1509447556.0,286046999.4,N
1509447575.8,286046997.1,N
1509447595.6,286046994.9,Y
